Location: Newark
(21.1200°N, 73.4000°E)
Time: 03:31:26
(UTC+00:00)

Vanguard 2 Rocket - Visible Passes

Search period start: 18 January 2020 00:00
Search period end: 28 January 2020 00:00
Orbit: 554 x 3326 km, 32.9° (Epoch: 17 January)

Date Brightness Start Highest point End Pass type
(mag) Time Alt. Az. Time Alt. Az. Time Alt. Az.
19 Jan 6.6 00:31:04 28° W 00:33:35 70° NNW 00:40:40 10° ENE visible
19 Jan 7.0 23:35:19 51° E 23:35:19 51° E 23:39:53 10° ENE visible
21 Jan 7.1 00:45:21 22° WNW 00:48:09 43° NNW 00:54:51 10° ENE visible
21 Jan 6.8 23:49:30 49° NNE 23:49:30 49° NNE 23:54:09 10° ENE visible
22 Jan 9.2 22:53:36 12° ENE 22:53:36 12° ENE 22:53:57 10° ENE visible
23 Jan 7.7 00:59:26 14° WNW 01:02:54 31° N 01:09:07 10° NE visible
24 Jan 7.2 00:03:30 35° N 00:03:30 35° N 00:08:16 10° NE visible
24 Jan 8.9 23:07:31 13° NE 23:07:31 13° NE 23:08:10 10° NE visible
25 Jan 8.1 01:13:35 10° NW 01:17:42 26° N 01:23:39 10° ENE visible
26 Jan 7.5 00:17:19 25° NNW 00:17:50 25° N 00:22:28 10° NE visible
26 Jan 8.7 23:21:17 14° NE 23:21:17 14° NE 23:22:14 10° NE visible
